Location: Oshawa
(43.9000°N, 78.8670°W)
Time: 16:45:14
(UTC-04:00)

S-56A Canister/Altair - All Passes

Search period start: 27 July 2017 00:00
Search period end: 06 August 2017 00:00
Orbit: 637 x 2497 km, 38.9° (Epoch: 26 July)

Date Brightness Start Highest point End Pass type
(mag) Time Alt. Az. Time Alt. Az. Time Alt. Az.
27 Jul - 01:37:19 10° WSW 01:43:34 19° SW 01:51:12 10° S visible
27 Jul - 16:54:36 10° SSE 16:56:11 11° SE 16:57:50 10° ESE daylight
27 Jul - 18:54:05 10° SW 18:58:43 41° SSE 19:04:56 10° E daylight
27 Jul - 20:56:32 10° W 21:02:15 58° S 21:10:47 10° ESE daylight
27 Jul - 22:59:41 10° W 23:06:25 42° SSW 23:16:17 10° SE visible
28 Jul - 01:04:36 10° WSW 01:10:49 20° SW 01:18:36 10° S visible
28 Jul - 18:22:06 10° SW 18:26:26 36° SSE 18:32:00 10° E daylight
28 Jul - 20:24:26 10° WSW 20:29:48 57° S 20:37:38 10° ESE daylight
28 Jul - 22:27:28 10° W 22:33:48 43° SSW 22:43:07 10° SE visible
29 Jul - 00:32:00 10° WSW 00:38:06 21° SSW 00:45:55 10° S visible
29 Jul - 17:50:08 10° SW 17:54:11 31° SSE 17:59:08 10° E daylight
29 Jul - 19:52:21 10° WSW 19:57:24 55° S 20:04:34 10° ESE daylight
29 Jul - 21:55:18 10° W 22:01:15 44° SSW 22:09:59 10° SE visible
29 Jul - 23:59:31 10° WSW 00:05:26 22° SSW 00:13:09 10° SSE visible
30 Jul - 17:18:11 10° SSW 17:21:58 26° SSE 17:26:20 10° E daylight
30 Jul - 19:20:16 10° WSW 19:25:02 53° S 19:31:36 10° E daylight
30 Jul - 21:23:10 10° W 21:28:45 45° SSW 21:36:53 10° SE visible
30 Jul - 23:27:06 10° WSW 23:32:48 23° SSW 23:40:20 10° SSE visible
31 Jul - 16:46:15 10° SSW 16:49:45 23° SSE 16:53:36 10° E daylight
31 Jul - 18:48:11 10° WSW 18:52:44 50° S 18:58:43 10° E daylight
31 Jul - 20:51:02 10° W 20:56:18 46° SSW 21:03:50 10° ESE daylight
31 Jul - 22:54:47 10° WSW 23:00:13 24° SSW 23:07:30 10° SSE visible
01 Aug - 16:14:19 10° SSW 16:17:32 19° SSE 16:20:54 10° ESE daylight
01 Aug - 18:16:05 10° WSW 18:20:26 46° S 18:25:55 10° E daylight
01 Aug - 20:18:55 10° W 20:23:53 46° S 20:30:52 10° ESE daylight
01 Aug - 22:22:30 10° WSW 22:27:42 25° SSW 22:34:41 10° SSE visible
02 Aug - 15:42:24 10° SSW 15:45:19 17° SSE 15:48:13 10° ESE daylight
02 Aug - 17:43:57 10° WSW 17:48:12 43° SSE 17:53:13 10° E daylight
02 Aug - 19:46:48 10° W 19:51:32 47° S 19:57:58 10° ESE daylight
02 Aug - 21:50:15 10° WSW 21:55:12 26° SSW 22:01:51 10° SSE visible
03 Aug - 15:10:32 10° S 15:13:03 15° SSE 15:15:32 10° ESE daylight
03 Aug - 17:11:47 10° WSW 17:15:57 39° SSE 17:20:36 10° E daylight
03 Aug - 19:14:40 10° W 19:19:12 47° S 19:25:09 10° ESE daylight
03 Aug - 21:18:02 10° WSW 21:22:45 27° SSW 21:29:03 10° SSE visible
04 Aug - 14:38:43 10° S 14:40:48 13° SSE 14:42:48 10° ESE daylight
04 Aug - 16:39:36 10° SW 16:43:43 36° SSE 16:48:04 10° E daylight
04 Aug - 18:42:31 10° WSW 18:46:54 47° S 18:52:24 10° ESE daylight
04 Aug - 20:45:50 10° WSW 20:50:21 28° SSW 20:56:18 10° SE daylight
05 Aug - 14:07:03 10° SSE 14:08:31 11° SSE 14:09:57 10° SE daylight
05 Aug - 16:07:22 10° SW 16:11:30 33° SSE 16:15:36 10° E daylight
05 Aug - 18:10:20 10° WSW 18:14:38 47° S 18:19:45 10° ESE daylight
05 Aug - 20:13:39 10° W 20:17:58 29° SSW 20:23:36 10° SE daylight
05 Aug - 22:20:05 10° SW 22:21:33 11° SSW 22:23:08 10° SSW visible
